Regional Weather Roundup
Issued by NWS

Home | Current Version | Previous Version | Text Only | Print | Product List | Glossary On
Versions: 1 2 3 4 5 6 7 8 9 10 11 12 13 14 15 16 17 18 19 20 21 22 23 24 25 26 27 28 29 30 31 32 33 34 35 36 37 38 39 40 41 42 43 44 45 46 47 48 49 50
000
ASUS43 KMPX 182010
RWRMN
WEATHER ROUNDUP FOR MINNESOTA
NATIONAL WEATHER SERVICE TWIN CITIES/CHANHASSEN MN
200 PM CST SUN FEB 18 2018


NOTE: "FAIR" INDICATES FEW OR NO CLOUDS BELOW 12,000 FEET WITH NO
SIGNIFICANT WEATHER AND/OR OBSTRUCTIONS TO VISIBILITY. N/A MEANS
CURRENT SKY AND/OR WEATHER CONDITIONS ARE NOT AVAILABLE.

MNZ060>063-068>070-182100-
   Twin Cities Metro

CITY           SKY/WX    TMP DP  RH WIND       PRES   REMARKS
TWIN CITIES    CLOUDY    43  30  60 S13       29.63F
ST PAUL        FAIR      40  30  67 S18G31    29.65F
CRYSTAL        FAIR      43  29  57 S24G35    29.61F
BLAINE         CLOUDY    41  30  65 S13G18    29.61F
LAKEVILLE      FAIR      39  30  70 S14G21    29.63F
EDEN PRAIRIE   FAIR      43  30  60 S24G30    29.59F
SOUTH ST PAUL  FAIR      41  29  62 S17G31    29.64S
LAKE ELMO      FAIR      41  30  65 S22       29.65F
$$
MNZ001>005-007-008-013>017-022>024-027-028-182100-
   Northwest Minnesota

CITY           SKY/WX    TMP DP  RH WIND       PRES   REMARKS
BEMIDJI        LGT SNOW  17  13  82 NE8       29.71R WCI   7
HALLOCK        CLOUDY    14   7  73 N16       29.89S WCI  -2
WARROAD        LGT SNOW  10   5  79 N12       29.88F WCI  -4
THIEF RVR FALL LGT SNOW  14   9  80 N18       29.81F WCI  -3
CROOKSTON      LGT SNOW  16  10  79 N21       29.82S WCI  -2
FOSSTON        LGT SNOW  18   9  68 NE16G22   29.74R VSB 3/4 WCI   3
DETROIT LAKES  PTSUNNY   23  16  74 NE10      29.67R WCI  12
MOORHEAD       DRIZZLE   19  16  86 N17G24    29.71F WCI   4
PARK RAPIDS    FLURRIES  19  13  77 NE9       29.65R WCI   8
MAHNOMEN       CLOUDY    19  12  75 NE14      29.71R WCI   6
$$
MNZ006-009>011-018-025>026-182100-
   North Central Minnesota

CITY           SKY/WX    TMP DP  RH WIND       PRES   REMARKS
BAUDETTE       LGT SNOW  10   5  80 NE13      29.83F WCI  -5
FLAG ISLAND    LGT SNOW   9   3  78 NE10      29.89F WCI  -6
INTL FALLS     SNOW      11   6  81 N10       29.84S VSB 1/2 WCI  -3
WASKISH        LGT SNOW  16  10  79 NE12G17   29.79S WCI   3
BIG FORK       LGT SNOW  18  12  79 NE8       29.72F VSB 1   WCI   7
LONGVILLE      LGT SNOW  19  14  79 NE7       29.66F WCI  10
GRAND RAPIDS   LGT SNOW  18  14  84 E7        29.70F VSB 1   WCI   9
CRANE LAKE     LGT SNOW  12  10  92 NE3       29.83F VSB 3/4
ORR            LGT SNOW  16  10  79 E3        29.74F VSB 3/4
COOK           LGT SNOW  16  12  86 NE5       29.75F VSB 3/4 WCI   9
WALKER         LGT SNOW  17  12  80 NE12      29.68S WCI   5
$$
MNZ012-019>021-037-182100-
   Northeast Minnesota

CITY           SKY/WX    TMP DP  RH WIND       PRES   REMARKS
DULUTH         LGT SNOW  20  16  84 E13       29.67F FOG     WCI   7
ELY            LGT SNOW  16  12  86 E13       29.75F VSB 3/4 WCI   2
HIBBING        SNOW      17  13  84 E9        29.70F VSB 1/2 WCI   6
EVELETH        LGT SNOW N/A N/A N/A NE9       29.72F VSB 3/4
DULUTH HARBOR  LGT SNOW  25  21  86 NE23      29.73F WCI  10
TWO HARBORS    SNOW      25  19  80 E9        29.71F VSB 1/2 WCI  15
GRAND MARAIS     N/A     19  15  84 NE18G28   29.85F WCI   4
G MARAIS ARPRT HVY SNOW  10   5  79 NE10      29.76F VSB 1/4 WCI  -3
$$
MNZ029>031-032-039>041-046>048-054>057-064-182100-
   West Central Minnesota

CITY           SKY/WX    TMP DP  RH WIND       PRES   REMARKS
FERGUS FALLS   PTSUNNY   25  16  68 NE10G18   29.62R WCI  15
WHEATON        CLOUDY    34  19  55 N16G22    29.61R WCI  23
MORRIS         CLOUDY    39  23  52 CALM      29.53R
ALEXANDRIA     CLOUDY    31  20  63 NE8       29.56S WCI  23
ELBOW LAKE     FAIR      29  20  69 E8        29.58R WCI  21
WADENA         FAIR      21  16  79 NE10      29.61S WCI  10
GLENWOOD       FAIR      39  25  56 CALM      29.54F
APPLETON       CLOUDY    45  25  45 NW7       29.53R
BENSON         CLOUDY    45  25  45 W9        29.53F
ORTONVILLE     CLOUDY    37  23  56 NW8       29.54R
MADISON        CLOUDY    46  27  46 NW10      29.52R
WILLMAR        FAIR      46  28  49 SW15G21   29.54F
$$
MNZ033>034-036-042>043-049>051-058-059-182100-
   Central Minnesota

CITY           SKY/WX    TMP DP  RH WIND       PRES   REMARKS
ST CLOUD       FAIR      40  28  62 S12       29.56F
SAUK CENTRE    FAIR      37  25  60 SE5       29.54F
PAYNESVILLE    FAIR      43  29  58 S8        29.53F
AITKIN         CLOUDY    25  12  58 NE9       29.62F WCI  15
PINE RIVER     LGT SNOW  18  12  79 NE9       29.67F WCI   6
BRAINERD       PTSUNNY   27  12  53 NE13      29.62F WCI  16
STAPLES        FAIR      25  12  58 NE8       29.60S WCI  16
LONG PRAIRIE   FAIR      30  21  69 N7        29.56F WCI  23
LITTLE FALLS   PTSUNNY   32  18  55 E3        29.58F
LITCHFIELD     FAIR      45  30  57 S5        29.55F
BUFFALO        FAIR      41  30  65 S16G23    29.60F
MAPLE LAKE     FAIR      41  32  68 S15G24    29.58F
HUTCHINSON     FAIR      42  32  67 S9G17     29.58F
$$
MNZ037-044-045-052-053-182100-
   East Central Minnesota

CITY           SKY/WX    TMP DP  RH WIND       PRES   REMARKS
PRINCETON      FAIR      43  28  56 S9        29.59F
MORA           FAIR      34  23  64 S5        29.63F WCI  30
CAMBRIDGE      FAIR      39  28  65 S15       29.60F
RUSH CITY      FAIR      37  27  67 S12G17    29.62F
MOOSE LAKE     CLOUDY    28  12  50 E7        29.64F WCI  21
HINCKLEY       FAIR      34  27  75 SE7       29.62F WCI  28
CLOQUET        CLOUDY    21  12  68 E10       29.67F WCI  10
MCGREGOR       CLOUDY    23  12  63 NE8       29.66S WCI  14
$$
MNZ071>073-080-081-089-090-097-098-182100-
   Southwest Minnesota

CITY           SKY/WX    TMP DP  RH WIND       PRES   REMARKS
MONTEVIDEO     CLOUDY    46  27  46 W9        29.52S
GRANITE FALLS  CLOUDY    48  30  50 SW17G24   29.54S
CANBY          CLOUDY    46  29  51 SW10G18   29.51F
MARSHALL       CLOUDY    46  28  49 SW21      29.52R
REDWOOD FALLS  CLOUDY    43  29  57 SW21G30   29.55F
OLIVIA         CLOUDY    43  28  56 SW20G29   29.54S
PIPESTONE      CLOUDY    43  30  61 SW20G26   29.51S
WINDOM         CLOUDY    41  21  45 S22G31    29.56F
WORTHINGTON    CLOUDY    40  30  67 S28G33    29.54F
JACKSON        CLOUDY    41  32  70 S21       29.58F
TRACY          CLOUDY    45  32  60 SW23G30   29.52S
SLAYTON        CLOUDY    40  31  69 SW24G32   29.53R
$$
MNZ065>067-074>077-082>085-091>093-182100-
   South Central Minnesota

CITY           SKY/WX    TMP DP  RH WIND       PRES   REMARKS
MANKATO        FAIR      41  32  70 S25       29.61R
NEW ULM        CLOUDY    41  30  65 S15       29.59F
ST JAMES       CLOUDY    39  32  75 S22G31    29.58F
FAIRMONT       CLOUDY    40  32  73 S22       29.60F
GLENCOE        FAIR      40  33  74 S14G20    29.59F
FARIBAULT      FAIR      43  28  56 S14G24    29.64S
OWATONNA       FAIR      41  30  65 S24G45    29.63F
WASECA         FAIR      39  30  70 S24G33    29.64F
ALBERT LEA     FAIR      43  28  56 S22G28    29.64R
$$
MNZ078>079-086>088-094>096-182100-
   Southeast Minnesota

CITY           SKY/WX    TMP DP  RH WIND       PRES   REMARKS
ROCHESTER      FAIR      37  29  72 S32G47    29.64F
RED WING       FAIR      43  23  45 S16G31    29.68R
STANTON        FAIR      41  29  63 S17G29    29.63S
DODGE CENTER   FAIR      37  28  70 S26G36    29.66R
WINONA         FAIR      41  28  60 S12G25    29.74F
AUSTIN         FAIR      39  28  65 S26G33    29.66F
PRESTON        FAIR      36  28  74 S26G38    29.69F
$$
ABBREVIATIONS USED IN REMARKS
   TC - TEMPERATURES IN CELSIUS
  WCI - WIND CHILL INDEX
   HX - HEAT INDEX
  VSB - VISIBILITY
$$




USA.gov is the U.S. government's official web portal to all federal, state and local government web resources and services.